Location: ???????
(55.3754°N, 39.3545°E)
Time: 06:12:08
(UTC+00:00)

Cosmos 371 Rocket - Pass Details

Date: 14 April 2026
Orbit: 674 x 689 km, 74.0° (Epoch: 12 May)

Event Time Altitude Azimuth Distance (km) Brightness Sun altitude
Rises 21:29:11 0° 327° (NNW) 3,067 7.5 -25.0°
Reaches altitude 10° 21:31:39 10° 319° (NW) 2,148 6.4 -24.9°
Enters shadow 21:35:29 33° 269° (W) 1,146 4.3 -24.9°
